Hourly Data Report for May 07, 2012

All times are specified in Local Standard Time (LST). Add 1 hour to adjust for Daylight Saving Time where and when it is observed.

LONDON A
ONTARIO

43°01'59.000" N
81°09'04.000" W
278.00 m
6144473
71623
YXU

Download Data

Hourly Data (May 2012)
Hourly Data Report for May 7, 2012
Temp Definition
°C
Dew Point Temp Definition
°C
Rel Hum Definition
%
Wind Dir Definition
10's deg

Wind Spd Definition
km/h
Visibility Definition
km
Stn Press Definition
kPa
Hmdx Definition


Wind Chill Definition


Weather Definition


TIME
00:00 Legend Double Dagger 13.4 1.5 44 9 12 10.0 98.46     LegendNANA
01:00 Legend Double Dagger 13.4 1.5 44 8 17 10.0 98.41     Cloudy
02:00 Legend Double Dagger 13.0 1.1 44 8 18 10.0 98.28     LegendNANA
03:00 Legend Double Dagger 12.7 0.5 43 8 22 10.0 98.21     LegendNANA
04:00 Legend Double Dagger 12.7 -0.5 40 8 22 10.0 98.16     Rain Showers
05:00 Legend Double Dagger 12.6 -0.9 39 9 21 10.0 98.14     LegendNANA
06:00 Legend Double Dagger 12.3 0.1 43 9 11 10.0 98.22     LegendNANA
07:00 Legend Double Dagger 12.7 1.4 46 9 17 10.0 98.17     Cloudy
08:00 Legend Double Dagger 13.1 2.7 49 8 19 10.0 98.16     LegendNANA
09:00 Legend Double Dagger 14.0 4.1 51 9 19 10.0 98.11     LegendNANA
10:00 Legend Double Dagger 13.7 4.4 53 10 14 10.0 98.14     Cloudy
11:00 Legend Double Dagger 15.1 5.9 54 11 18 10.0 98.11     LegendNANA
12:00 Legend Double Dagger 15.1 7.0 58 11 18 10.0 98.06     LegendNANA
13:00 Legend Double Dagger 15.3 8.8 65 11 20 10.0 97.99     Rain Showers
14:00 Legend Double Dagger 14.2 11.6 84 12 20 10.0 97.96     Rain Showers
15:00 Legend Double Dagger 13.6 12.2 91 12 18 6.4 97.93     Rain Showers,Fog
16:00 Legend Double Dagger 13.4 12.5 94 11 14 6.4 97.86     Rain Showers,Fog
17:00 Legend Double Dagger 13.4 12.5 94 7 12 9.7 97.79     Fog
18:00 Legend Double Dagger 12.9 12.0 94 2 11 8.1 97.74     Fog
19:00 Legend Double Dagger 12.6 11.8 95 6 9 9.7 97.70     Fog
20:00 Legend Double Dagger 12.2 11.6 96 8 11 6.4 97.69     Fog
21:00 Legend Double Dagger 12.2 11.7 97 7 7 6.4 97.64     Rain Showers,Fog
22:00 Legend Double Dagger 12.2 11.9 98   0 4.8 97.62     Rain,Fog
23:00 Legend Double Dagger 12.2 12.1 99   0 4.8 97.61     Rain,Fog

Notes on Data Quality.

Legend

  • E = Estimated
  • M = Missing
  • NA = Not Available
  • ‡ = Partner data that is not subject to review by the National Climate Archives
Date modified: